Starlink 36059

operational
NORAD ID: 66904 Int'l Des: 2025-283 Owner: SPXS Country: US Constellation: starlink
LEOCIRCULAR

About Starlink 36059

Description loading...

Live Position

Loading 3D Globe...

Upcoming Passes

Altitude History

Altitude vs Time

uPlot chart will show altitude changes over time

Two-Line Element Set

1 66904U 25283AC 26047.58440142 .00012863 00000-0 44565-3 0 9999
2 66904 53.1603 122.1349 0001450 78.6685 281.4478 15.30200378 12610
Epoch: Feb 16, 2026 • Age: 11 hours

Current Status

Altitude 494.5 km
Velocity 7.62 km/s
Sub-Earth Point -52.86°S, 136.01°W
Launch Date Dec 4, 2025
Age 0.2 years
Type internet

Technical Details

Classification Payload
Mass 575.00 kg
Dry Mass 530.00 kg
Total Mass 575.00 kg
Length 0.30 m
Diameter 4.10 m
Span 29.00 m
Shape Box + pan
Manufacturer SPXS
Bus Type Starlink V2MO
Phase Status In Orbit
Owner/State SPXS/US

Large Constellations

Loading constellations...